Wind_Speed
13 13 13 13 13 13 12 12 12 12 12 12 12 12 12 11 11 11 12 12 12 11 12 11 11 11 10 10 9 9 9 9 9 9 9 9 9 9 9 9 9 9 8
15 15 15 15 15 15 15 14 14 14 14 14 14 14 14 14 13 13 13 12 12 13 13 13 13 13 13 12 12 11 11 11 11 11 11 10 10 10 10 10 10 10 10
17 17 17 17 18 18 17 17 16 16 16 16 16 15 15 15 15 15 15 14 14 13 13 14 14 14 14 14 14 14 14 13 13 13 13 12 12 12 11 11 11 11 11
19 19 19 19 20 20 20 19 19 19 18 18 18 18 18 17 17 17 17 17 17 16 16 15 15 16 16 16 16 15 15 15 15 15 14 14 14 14 13 13 13 12 13
20 20 21 21 21 22 22 22 22 21 21 21 21 21 21 21 20 20 19 19 19 19 18 18 18 18 17 17 17 17 17 17 17 16 16 16 16 16 15 15 14 14 14
23 23 23 23 23 23 24 24 24 24 23 23 23 23 23 22 22 22 22 22 21 21 21 20 20 20 20 19 19 19 19 19 18 18 18 17 17 17 17 17 16 16 16
25 25 25 25 25 25 26 26 26 26 26 25 25 25 25 25 24 24 24 24 24 24 23 23 23 23 23 22 22 21 21 21 21 20 20 19 19 19 19 19 18 18 18
28 28 28 28 28 28 28 28 27 28 28 27 27 27 27 27 27 26 26 26 26 26 26 25 25 25 25 25 24 24 23 23 23 23 23 22 22 21 21 21 20 20 20
30 30 30 30 30 30 30 30 29 29 29 29 29 29 29 29 29 29 29 29 29 29 28 28 28 28 28 27 27 27 26 26 26 25 25 25 24 24 23 23 22 22 22
32 32 32 32 32 32 32 32 32 32 32 32 32 32 31 31 31 31 31 32 31 31 31 31 31 30 30 30 30 30 29 29 28 28 28 27 27 26 26 25 25 24 24
33 34 34 34 34 34 34 34 34 34 34 34 34 34 34 34 34 34 34 34 34 34 34 34 34 33 33 33 33 33 32 31 31 31 30 30 29 29 28 28 28 27 26
33 33 34 34 35 35 36 36 36 36 36 36 36 37 37 37 36 36 36 36 36 36 36 36 36 36 36 36 36 35 35 34 34 34 33 32 32 31 31 30 30 30 30
32 33 33 34 35 35 36 36 36 37 37 37 38 38 39 39 39 39 39 39 39 38 38 38 38 38 38 38 38 38 37 37 37 36 36 35 35 34 33 33 33 32 32
33 33 34 35 35 36 36 36 36 36 37 38 39 40 41 41 41 42 42 42 42 42 41 41 41 41 40 40 40 40 40 39 38 38 38 37 37 36 36 35 35 34 34
33 34 34 35 36 36 37 37 37 38 38 39 40 40 41 42 43 43 44 44 44 45 44 44 43 43 42 42 43 42 42 41 41 40 40 39 39 38 38 38 37 36 35
34 34 35 36 36 37 38 38 38 39 39 40 39 39 40 42 43 44 45 46 46 47 46 46 46 46 45 45 45 45 44 44 44 43 42 42 41 41 40 39 39 38 37
34 35 35 35 36 37 38 38 38 39 39 39 40 40 41 41 42 44 45 46 47 48 49 49 49 49 48 47 47 47 47 47 47 46 45 45 45 44 42 41 41 40 39
33 33 33 34 35 36 37 38 38 38 39 39 39 40 41 42 42 44 45 47 48 48 49 50 50 50 50 50 49 49 49 49 49 48 48 48 47 46 46 44 43 43 42
34 34 34 35 35 36 36 37 38 38 39 39 40 41 41 42 43 43 44 45 47 48 48 49 50 51 51 52 52 51 50 50 50 50 49 49 48 47 47 46 46 45 44
35 36 36 36 36 36 36 36 37 38 39 40 40 41 42 43 43 43 43 44 46 47 48 49 50 51 51 52 53 53 52 51 51 51 49 50 50 49 49 48 48 48 47
37 37 37 36 36 36 37 37 38 38 39 40 40 40 41 42 42 42 43 44 45 47 49 50 51 51 51 51 52 53 53 54 53 52 51 51 51 51 50 50 50 49 49
36 36 36 36 36 37 37 38 38 38 38 39 40 40 40 41 42 42 42 42 43 45 46 47 49 50 51 51 52 53 54 54 54 54 55 54 54 54 52 52 51 50 49
35 35 36 36 36 37 37 37 37 37 38 39 40 40 41 41 41 41 42 42 43 44 44 44 46 48 49 50 50 52 53 54 55 54 55 56 55 55 54 54 53 52 51
35 35 35 35 35 35 35 35 36 36 37 37 38 39 39 40 40 40 41 42 42 43 43 44 45 46 48 50 51 51 52 52 53 52 52 53 54 55 55 54 55 55 53
33 33 33 33 33 33 34 35 35 35 36 36 37 37 38 39 40 40 41 41 41 40 41 42 43 44 46 47 49 50 51 51 52 52 52 52 53 53 54 53 54 55 54
31 31 32 32 33 33 33 33 34 35 36 36 37 37 38 39 39 39 39 39 39 39 39 40 41 42 43 45 47 49 50 51 52 52 52 52 53 53 52 52 53 54 56
Wind_Direction
252 254 256 259 262 266 269 271 271 272 273 275 277 279 280 281 281 281 281 281 279 279 279 278 277 275 275 276 277 278 279 280 281 282 282 280 281 283 286 287 289 291 294
256 257 258 260 263 265 268 270 272 273 273 274 276 277 277 278 279 280 280 281 281 279 278 277 276 273 272 272 272 273 275 276 277 277 278 278 278 279 282 284 284 285 287
257 259 260 262 264 266 268 270 271 274 274 274 274 275 276 277 277 277 278 278 278 279 279 277 276 273 272 271 270 270 271 273 273 273 274 275 275 276 278 280 281 281 282
258 260 262 263 265 266 268 269 270 272 274 274 274 274 274 275 276 276 276 277 277 276 276 277 277 274 272 271 270 269 269 270 271 271 270 271 272 274 275 277 278 278 278
260 261 262 264 265 267 268 269 271 271 272 273 273 273 273 273 274 274 275 275 275 275 274 274 275 274 274 272 271 269 268 268 269 269 268 268 269 270 272 273 275 275 276
261 262 263 264 266 267 268 269 271 271 271 272 273 273 273 273 272 272 272 272 273 273 273 273 273 273 273 272 271 271 269 268 267 266 266 267 268 268 269 270 272 272 273
261 263 264 266 267 268 269 270 270 271 271 272 272 272 273 273 272 272 271 271 272 272 272 272 272 272 271 271 271 270 270 268 267 266 264 265 267 267 266 267 269 270 271
261 263 265 266 267 268 269 270 270 271 271 271 271 271 272 272 272 272 271 271 271 271 271 270 270 270 271 271 270 270 270 269 268 267 265 264 266 266 265 264 265 267 269
262 264 265 267 267 268 268 269 270 270 271 270 271 271 272 272 272 271 271 270 270 270 270 270 270 270 270 270 269 269 269 269 268 267 266 265 265 264 264 264 264 265 267
263 264 266 267 268 268 269 269 270 270 270 271 271 272 272 271 271 271 271 270 270 270 269 269 269 269 269 269 269 269 269 268 267 267 266 265 265 264 263 263 263 264 265
264 265 266 267 268 268 269 270 271 270 270 270 271 271 271 271 271 271 271 270 270 269 269 269 269 268 268 268 269 268 268 268 267 266 266 265 264 264 263 263 263 263 264
265 266 266 267 268 269 270 270 270 270 270 270 269 269 269 270 270 270 270 270 270 269 269 269 268 268 268 268 268 268 267 267 267 266 266 265 264 264 264 263 263 263 264
264 265 267 268 269 270 270 271 271 271 271 270 270 269 269 269 269 269 269 269 269 269 268 268 268 268 268 268 268 268 267 267 267 266 266 265 264 264 263 263 263 263 264
265 266 267 268 269 270 271 271 271 271 272 272 271 270 270 269 269 268 268 268 268 268 267 267 267 267 267 267 267 268 268 267 267 266 266 265 265 264 264 263 263 263 264
266 268 268 269 269 269 270 271 271 272 273 273 273 272 271 270 270 269 269 268 268 267 267 266 266 266 266 267 267 266 266 267 267 266 266 265 265 265 264 263 263 263 263
268 269 269 270 270 271 271 272 272 273 274 274 274 273 272 272 271 270 270 269 268 266 266 266 266 266 265 266 266 267 266 266 266 265 265 265 265 264 264 264 263 263 262
268 270 271 272 273 273 273 273 273 273 273 274 274 274 274 273 273 272 271 270 269 267 266 266 265 265 265 265 265 265 265 265 265 264 264 264 264 264 264 264 264 263 263
268 270 273 274 275 275 275 275 274 274 274 274 275 275 275 275 275 274 272 271 269 268 267 266 265 265 265 264 264 265 264 265 264 263 263 262 262 262 263 263 263 263 263
269 271 273 275 276 276 277 277 276 275 275 275 275 276 276 277 277 277 274 271 270 268 267 266 265 264 264 264 263 263 263 263 262 261 261 261 261 262 262 261 261 262 262
270 272 273 274 276 277 277 277 278 278 278 277 277 278 278 278 278 277 277 274 272 269 268 267 266 265 264 264 263 262 262 262 261 260 260 260 260 260 261 261 262 261 262
271 272 273 274 276 277 278 279 279 280 281 280 279 279 279 279 278 278 278 276 274 271 269 267 266 266 265 264 263 262 260 260 260 260 260 260 260 260 260 260 261 260 261
272 273 274 275 277 278 279 279 280 281 281 281 281 281 281 280 279 279 278 277 275 273 271 269 267 266 265 265 264 262 261 260 260 261 260 260 260 260 259 259 259 260 260
274 275 276 277 278 279 279 279 279 281 282 283 283 282 282 282 280 278 278 278 276 275 273 271 269 267 266 265 265 263 262 261 261 262 261 261 260 259 260 260 260 260 259
276 276 277 279 280 280 279 280 281 282 283 283 284 283 283 283 282 281 280 279 278 276 275 273 271 269 268 266 266 264 264 263 262 260 260 261 260 260 260 260 259 259 258
277 277 278 280 281 281 280 282 283 284 285 286 287 285 285 284 284 283 281 280 280 278 276 274 273 272 271 269 267 266 265 265 263 262 260 259 261 261 261 260 260 258 258
278 279 280 280 282 282 283 283 284 285 287 288 289 289 288 288 286 285 283 281 280 280 277 276 274 275 274 272 270 267 266 265 265 265 263 261 261 260 261 261 260 259 258
Height
5864 5865 5865 5866 5867 5867 5868 5868 5869 5869 5870 5870 5871 5871 5872 5872 5872 5873 5873 5873 5874 5874 5874 5874 5875 5875 5875 5875 5875 5876 5876 5876 5876 5876 5876 5876 5876 5876 5876 5876 5876 5876 5876
5862 5863 5863 5864 5864 5865 5865 5866 5867 5867 5867 5868 5868 5869 5869 5870 5870 5871 5871 5871 5871 5872 5872 5872 5872 5873 5873 5873 5873 5873 5874 5874 5874 5874 5874 5874 5874 5874 5874 5874 5874 5874 5874
5859 5860 5860 5861 5862 5862 5863 5863 5864 5864 5865 5865 5865 5866 5866 5867 5867 5868 5868 5869 5869 5869 5870 5870 5870 5870 5870 5870 5871 5871 5871 5871 5871 5872 5872 5872 5872 5872 5872 5872 5872 5872 5872
5855 5856 5857 5858 5858 5859 5859 5860 5860 5861 5861 5862 5862 5863 5863 5864 5864 5865 5865 5866 5866 5866 5867 5867 5867 5867 5867 5868 5868 5868 5868 5868 5869 5869 5869 5869 5870 5870 5870 5870 5870 5870 5870
5852 5852 5853 5854 5854 5855 5856 5856 5857 5857 5858 5858 5859 5859 5860 5860 5860 5861 5861 5862 5862 5863 5863 5864 5864 5864 5864 5864 5865 5865 5865 5865 5865 5866 5866 5866 5866 5867 5867 5867 5867 5867 5867
5847 5848 5849 5850 5850 5851 5852 5852 5853 5853 5854 5854 5854 5855 5855 5856 5856 5857 5857 5858 5858 5859 5859 5860 5860 5860 5860 5861 5861 5861 5861 5861 5862 5862 5862 5863 5863 5863 5864 5864 5864 5864 5864
5843 5844 5845 5845 5846 5847 5847 5848 5848 5849 5849 5849 5850 5850 5851 5851 5852 5852 5853 5853 5854 5854 5855 5855 5855 5856 5856 5856 5857 5857 5857 5857 5858 5858 5858 5859 5859 5859 5860 5860 5860 5860 5861
5838 5839 5839 5840 5841 5842 5842 5843 5843 5844 5844 5844 5845 5845 5845 5846 5846 5847 5847 5848 5849 5849 5850 5850 5851 5851 5851 5851 5852 5852 5853 5853 5853 5854 5854 5854 5855 5855 5855 5856 5856 5856 5857
5832 5833 5834 5835 5836 5836 5837 5837 5838 5838 5838 5839 5839 5839 5840 5840 5841 5841 5842 5842 5843 5843 5844 5845 5845 5845 5846 5846 5847 5847 5847 5848 5848 5848 5849 5849 5850 5850 5850 5851 5851 5852 5852
5826 5827 5828 5829 5830 5830 5831 5831 5832 5832 5832 5833 5833 5833 5834 5834 5834 5835 5835 5836 5837 5837 5838 5838 5839 5840 5840 5840 5841 5841 5842 5842 5843 5843 5843 5844 5844 5844 5845 5846 5846 5846 5847
5820 5821 5822 5823 5823 5824 5824 5824 5825 5825 5826 5826 5826 5827 5827 5827 5827 5828 5828 5829 5830 5830 5831 5832 5832 5833 5833 5834 5834 5835 5835 5836 5836 5837 5837 5838 5838 5839 5839 5840 5840 5841 5841
5814 5815 5815 5816 5816 5817 5817 5817 5817 5818 5818 5818 5818 5819 5819 5820 5820 5820 5821 5821 5822 5823 5823 5824 5825 5825 5826 5827 5827 5828 5828 5829 5830 5830 5830 5831 5832 5832 5833 5833 5834 5834 5835
5808 5808 5808 5809 5809 5809 5810 5810 5810 5810 5810 5810 5810 5810 5811 5811 5812 5812 5813 5813 5814 5815 5815 5816 5816 5817 5818 5819 5819 5820 5820 5821 5822 5823 5823 5824 5824 5825 5826 5826 5827 5828 5828
5801 5801 5802 5802 5802 5802 5802 5802 5802 5802 5801 5801 5801 5801 5802 5802 5803 5803 5804 5804 5805 5805 5806 5807 5807 5808 5809 5810 5811 5811 5812 5813 5814 5815 5815 5816 5816 5817 5818 5819 5819 5820 5821
5794 5794 5794 5794 5794 5794 5794 5794 5794 5794 5793 5793 5792 5792 5792 5792 5793 5793 5794 5794 5795 5795 5796 5797 5798 5799 5800 5800 5801 5802 5803 5804 5805 5806 5807 5807 5808 5809 5810 5810 5811 5812 5813
5787 5787 5787 5787 5786 5786 5786 5786 5785 5785 5784 5784 5783 5783 5783 5783 5783 5783 5783 5784 5784 5784 5785 5786 5787 5788 5789 5790 5791 5792 5793 5794 5795 5796 5797 5798 5799 5800 5801 5802 5803 5804 5805
5780 5780 5779 5779 5778 5778 5777 5777 5777 5776 5776 5775 5774 5774 5773 5773 5773 5772 5772 5772 5772 5773 5774 5775 5776 5777 5778 5779 5780 5781 5782 5783 5784 5786 5787 5788 5789 5790 5792 5793 5794 5795 5796
5772 5772 5772 5771 5771 5770 5769 5768 5768 5767 5767 5766 5765 5764 5764 5763 5762 5762 5761 5761 5760 5760 5761 5762 5763 5765 5766 5767 5768 5769 5770 5771 5773 5774 5775 5777 5778 5780 5781 5783 5784 5785 5786
5766 5765 5765 5764 5763 5762 5761 5760 5759 5759 5758 5757 5756 5755 5754 5753 5752 5751 5750 5749 5749 5748 5749 5750 5751 5752 5753 5754 5756 5757 5758 5759 5760 5762 5763 5765 5767 5768 5770 5771 5773 5775 5776
5758 5758 5758 5757 5756 5755 5754 5753 5752 5751 5749 5748 5747 5746 5744 5743 5741 5740 5739 5738 5737 5737 5737 5737 5738 5739 5740 5741 5742 5744 5745 5746 5748 5749 5751 5753 5754 5756 5758 5760 5761 5763 5765
5751 5751 5750 5749 5748 5747 5746 5745 5744 5743 5741 5739 5738 5736 5734 5733 5731 5729 5728 5727 5725 5725 5725 5725 5725 5726 5727 5727 5728 5730 5732 5733 5735 5737 5738 5740 5742 5744 5746 5748 5749 5751 5753
5744 5743 5743 5742 5741 5740 5738 5737 5736 5734 5733 5731 5729 5727 5725 5723 5721 5719 5717 5716 5714 5713 5713 5713 5713 5713 5714 5714 5714 5715 5718 5721 5721 5723 5725 5727 5729 5730 5732 5735 5736 5738 5741
5737 5736 5735 5734 5733 5732 5730 5729 5728 5726 5724 5722 5719 5717 5715 5713 5711 5709 5707 5706 5704 5703 5702 5701 5701 5701 5701 5701 5701 5702 5703 5707 5709 5710 5711 5713 5715 5717 5719 5721 5723 5725 5728
5730 5729 5728 5727 5725 5724 5722 5721 5719 5718 5716 5713 5711 5708 5706 5703 5701 5699 5697 5695 5694 5692 5691 5690 5689 5689 5689 5689 5689 5689 5690 5691 5693 5697 5699 5699 5701 5703 5705 5707 5709 5712 5714
5722 5721 5720 5719 5718 5716 5715 5713 5711 5709 5707 5705 5702 5699 5697 5694 5692 5689 5687 5685 5683 5682 5680 5679 5678 5677 5677 5677 5677 5677 5677 5678 5679 5681 5685 5687 5687 5689 5691 5693 5695 5697 5700
5715 5714 5713 5712 5711 5709 5707 5706 5704 5701 5699 5696 5693 5690 5687 5684 5682 5679 5677 5675 5673 5672 5670 5669 5668 5667 5666 5665 5665 5665 5665 5666 5666 5667 5669 5672 5674 5675 5676 5678 5681 5683 5686